Regional Weather Roundup
Issued by NWS

Home | Current Version | Previous Version | Graphics & Text | Print | Product List | Glossary On
Versions: 1 2 3 4 5 6 7 8 9 10 11 12 13 14 15 16 17 18 19 20 21 22 23 24 25 26 27 28 29 30 31 32 33 34 35 36 37 38 39 40 41 42 43 44 45 46 47 48 49 50
000
ASUS43 KMKX 040900
RWRWI

WISCONSIN REGIONAL WEATHER ROUNDUP
NATIONAL WEATHER SERVICE MILWAUKEE/SULLIVAN WI
400 AM CDT SAT JUL 04 2015

NOTE: "FAIR" INDICATES FEW OR NO CLOUDS BELOW 12,000 FEET WITH NO
SIGNIFICANT WEATHER AND/OR OBSTRUCTIONS TO VISIBILITY.

WIZ001-002-006>008-014>016-023>028-041000-
NORTHWEST WISCONSIN

CITY           SKY/WX    TMP DP  RH WIND       PRES   REMARKS
SUPERIOR ARPT  CLEAR     52  51  99 NE3       29.94R
ASHLAND        PTCLDY    51  51 100 NW3       29.93S FOG
HAYWARD        FOG       55  54  96 N3        29.94R VSB 3/4
SIREN          PTCLDY    57  56  95 CALM      29.93R FOG
CUMBERLAND     CLEAR     57  57 100 CALM      29.93S FOG
RICE LAKE      FOG       59  58  96 CALM      29.94R VSB<1/4
CHETEK         CLEAR     61  60  96 SW3       29.92S
LADYSMITH      CLEAR     57  55  95 CALM      29.95R FOG
EAU CLAIRE     NOT AVBL
MENOMONIE      CLEAR     60  58  94 CALM      29.93R
NEW RICHMOND   CLEAR     61  59  94 CALM      29.93S
OSCEOLA        CLEAR     59  59 100 CALM      29.95S
$$

WIZ003>005-009-010-017-018-041000-
NORTH CENTRAL WISCONSIN

CITY           SKY/WX    TMP DP  RH WIND       PRES   REMARKS
MANITOWISH WTR FOG       53  53 100 CALM      29.94S VSB 1/4
ARBOR VITAE      N/A     55  53  95 CALM      29.94R FOG
WOODRUFF         N/A     55  53  95 CALM      29.94R FOG
RHINELANDER    FOG       52  52 100 CALM      29.95R VSB 1/4
EAGLE RIVER    FOG       52  52 100 CALM      29.94S VSB 1
LAND O LAKES   PTCLDY    50  50  99 CALM      29.96R FOG
PHILLIPS         N/A     54  54 100 CALM      29.93S FOG
TOMAHAWK       FOG       53  52  97 CALM      29.94S VSB 1/2
MEDFORD        CLEAR     54  53  98 CALM      29.94S FOG
MERRILL        FOG       55  55 100 CALM      29.94S VSB 1/2
$$

WIZ029-030-035-036-043>047-041000-
CENTRAL WISCONSIN

CITY           SKY/WX    TMP DP  RH WIND       PRES   REMARKS
WAUSAU         CLEAR     60  57  89 E3        29.92S
MOSINEE        CLEAR     59  55  88 W3        29.94S
MARSHFIELD     PTCLDY    60  55  83 CALM      29.94S
STEVENS POINT  CLEAR     54  52  94 CALM      29.94S
WAUPACA        CLEAR     60  58  96 CALM      29.93S
WAUTOMA        NOT AVBL
WISC RAPIDS    PTCLDY    59  56  89 CALM      29.94F
CAMP DOUGLAS   CLEAR     54  54 100 E1        29.93S FOG
$$

WIZ011>013-019>022-031-037>040-048>050-041000-
NORTHEAST WISCONSIN

CITY           SKY/WX    TMP DP  RH WIND       PRES   REMARKS
ANTIGO         PTCLDY    56  56  98 CALM      29.94S
SHAWANO        CLOUDY    63  58  84 CALM      29.91S
OCONTO         CLOUDY    58  58 100 CALM      29.89S
STURGEON BAY   MOCLDY    63  55  77 W5        29.92S
GREEN BAY      MOCLDY    62  59  90 SW5       29.91S
MANITOWOC      NOT AVBL
APPLETON       CLOUDY    63  55  77 W8        29.93S
CLINTONVILLE   CLOUDY    63  55  77 CALM      29.91S
OSHKOSH        CLEAR     64  57  78 W5        29.92S
$$

WIZ032>034-041-042-053>061-041000-
SOUTHWEST WISCONSIN

CITY           SKY/WX    TMP DP  RH WIND       PRES   REMARKS
LA CROSSE      MOCLDY    63  61  93 S7        29.94S
SPARTA         CLOUDY    53  51  93 CALM      29.95S
VIROQUA        CLEAR     61  60  99 SW5       29.96S
BOSCOBEL       MOCLDY    55  54  96 CALM      29.96S
PRAIRIE DU CHI CLEAR     57  55  94 E3        29.96S
PLATTEVILLE    CLEAR     59  55  87 S5        29.97S
$$

WIZ056-057-062-063-064-067-068-041000-
SOUTH CENTRAL WISCONSIN

CITY           SKY/WX    TMP DP  RH WIND       PRES   REMARKS
REEDSBURG      CLEAR     56  55  98 CALM      29.95S
BARABOO/DELLS  CLEAR     59  54  83 CALM      29.95S
LONE ROCK      MOCLDY    55  53  93 CALM      29.96S FOG
MINERAL POINT  CLEAR     59  55  88 S3        29.97S
MADISON        CLEAR     57  54  89 CALM      29.95S
MIDDLETON      CLEAR     56  55  96 CALM      29.96S
WATERTOWN      CLEAR     55  55 100 CALM      29.94S
MONROE         CLEAR     61  52  72 W9        29.96S
JANESVILLE     CLEAR     55  54  94 CALM      29.95F
$$

WIZ051-052-058>065-066-070>072-041000-
SOUTHEAST WISCONSIN

CITY           SKY/WX    TMP DP  RH WIND       PRES   REMARKS
MILWAUKEE      PTCLDY    61  55  81 SW6       29.95R
WAUKESHA       CLEAR     54  52  94 CALM      29.96S
MILWAUKEE/TIMM CLEAR     57  52  82 CALM      29.95S
RACINE         CLEAR     61  53  75 W6        29.96S
BURLINGTON     CLEAR     51  51  99 CALM      29.95F FOG
KENOSHA        CLEAR     54  52  93 SW3       29.95S
FOND DU LAC    CLEAR     61  57  87 SW3       29.94R
SHEBOYGAN      MOCLDY    60  56  86 W5        29.92S
WEST BEND      CLEAR     54  52  94 CALM      29.94S
JUNEAU         CLEAR     57  54  89 CALM      29.95S
$$

LSZ147-162-041000-
LAKE SUPERIOR

STATION/POSITION TIME  TEMP    WIND        PRES    WAVE
                       AIR SEA DIR/SP/G            HT/PER
                 (UTC) (F)     (DEG/KT/KT) (MB)    (FT/S)
W MID LAKE BUOY  0750   42 38   10/  4/  4 1013.6R   1
DEVILS ISLAND    0800   58      70/  5/  7 1013.3S
SAXON HARBOR     0840   59        CALM     1012.9R
$$

LMZ867-665-643>646-041000-
LAKE MICHIGAN

STATION/POSITION TIME  TEMP    WIND        PRES    WAVE
                       AIR SEA DIR/SP/G            HT/PER
                 (UTC) (F)     (DEG/KT/KT) (MB)    (FT/S)
CHAMBERS ISLAND  0800   63     220/  4/  5 1012.2S
S GREEN BAY BUOY 0700   69 68  220/  8/ 10 1013.6R
N MID LAKE BUOY  0750   49 43  200/  8/ 10 1012.1S   1/ 4
NORTHPORT PIER   0800   64     250/  4/  7 1011.9S
SISTER BAY       0814   64     360/  5/  8   N/A
KEWAUNEE LAKESHO 0800   62     300/  4/  6 1011.9S
SHEBOYGAN LAKESH 0800   63     250/  8/ 10 1013.2F
PORT WASHINGTON  0840   64     280/  6/  8 1014.2S
ATWATER BUOY     0800   63 60  180/  4/  4 1015.1S
MILWAUKEE LAKESH 0800   65     240/  3/  4   N/A
KENOSHA   LAKESH 0800   64     250/  7/ 11 1013.9S
$$

TC  - TEMPERATURE IN CELSIUS
VSB - VISIBILITY IN STATUTE MILES
WCI - WIND CHILL INDEX
HX  - HEAT INDEX



USA.gov is the U.S. government's official web portal to all federal, state and local government web resources and services.